Погода в Костюковичи

Погода в Костюковичи : погода сейчас, прогноз погоды и архив. Всё, что Вы хотите узнать о погоде в Костюковичи!

Поиск расширенной информации на нашем сайте:

Другие новости

Новости СМИ2

Главная страница сайта

Новости сайта

03.07.2017

Напоминаем, что на нашем специализированном сайте Метеоцентр.Азия вы можете получить высокодетализированные автоматические прогнозы погоды по пунктам России, СНГ и мира в авиационном формате (включающие направление и скорость ветра, видимость, явления погоды, количество и форму облачности, нижнюю и верхнюю границу облачности).


Погода в Костюковичи - сегодня

Время (UTC), дата Ветер
(°,м/с) 
Видим.   Явления Облачность Т
(°С)
Тd
(°С)
f(%) Тe
(°С)
Pmin
(гПа)
dP
(гПа)
Po
(мм)
O2
(г/м3)
Тmin Tmax R s Состояние
почвы
09 20.07.18 320 (СЗ) 23000 м    9/9 1000 м кучево-дожд. 
[Cb cap]
+21.4 +19 86 +38  1002.1  0.6  737  271           
12 20.07.18 350 (С) 35000 м    8/6 1000 м средняя, верхняя 
[Cu med, cong|Ac trans|Ci fib]
+24.8 +17.6 64 +39  1001.8  -0.1  737  268           
15 20.07.18 350 (С) 30000 м    8/4 1000 м средняя, верхняя 
[Cu med, cong|Ac As|Ci fib]
+25.2 +18.6 67 +41  1001.8  737  268           
18 20.07.18 350 (С) 35000 м    9/3 1000 м средняя 
[Sc diur, vesp|Ac inh]
+21.8 +19.1 85 +39  1002.9  0.9  738  271    +26.4       
21 20.07.18 320 (СЗ) 24000 м    10/0 средняя 
[As op]
+21 +18.6 86 +37  1003.5  0.5  738  272           
00 21.07.18 080 (В) 3800 м  ливневой дождь  10/4 600 м кучево-дожд., средняя 
[Cb cap|As op]
+19.3 +18.8 97 +38  1004  0.4  739  273         
03 21.07.18 170 (Ю) 6000 м  слаб. дождь{ливн. осадки}  10/10 270 м 
[Frnb|Ns]
+18.3 +17.8 97 +34  1004.1  739  275      23     
06 21.07.18 010 (С) 27000 м  {ливн. осадки, дождь}  9/9 570 м 
[Sc]
+20.3 +18.9 92 +37  1004.1  0.1  739  273  +17.8    23     
09 21.07.18 060 (СВ) 35000 м    9/5 600 м средняя 
[Sc|Ac trans]
+23 +19.3 80 +41  1004.2  0.3  739  270           
12 21.07.18 070 (В) 35000 м    9/9 600 м кучево-дожд. 
[Cb cap]
+26.1 +18.1 61 +41  1003.4  -0.5  739  267           
15 21.07.18 020 (С) 35000 м  в посл. час гроза{ливн. осадки}  8/3 600 м кучево-дожд., средняя 
[Cb cap|Ac inh]
+20.9 +19.6 92 +39  1004.6  0.8  739  272         
18 21.07.18 260 (З) 20000 м  {гроза, ливн. осадки}  9/9 930 м 
[Sc]
+21.3 +19.9 92 +40  1005  0.4  739  271    +26.4     
21 21.07.18 020 (С) 12000 м  {ливн. осадки}  10/0 средняя 
[As op]
+19.8 +19.2 96 +38  1005.2  0.1  740  273         
00 22.07.18 020 (С) 8000 м  дымка{ливн. осадки}  8/0 средняя 
[Ac inh]
+18.7 +18.2 97 +35  1005.2  -0.1  739  275           
03 22.07.18 020 (С) 1000 м  дымка  10/10 100 м 
[St]
+18.5 +18.1 98 +35  1005.3  0.1  740  275         
06 22.07.18 020 (С) 8000 м  в посл. час дождь{туман}  10/10 240 м 
[St]
+19.8 +19.4 98 +39  1005.1  -0.1  739  273  +17.6       
09 22.07.18 300 (СЗ) 4600 м  ливневой дождь  10/3 1000 м кучево-дожд., средняя 
[Cb cap|As op]
+18.1 +17.7 98 +33  1005.5  0.2  740  275      40     
12 22.07.18 350 (С) 35000 м  ливневой дождь  10/4 1000 м средняя 
[Cu med, cong|As op]
+22.5 +20.7 90 +43  1004.3  -0.8  739  270      29     
15 22.07.18 030 (СВ) 35000 м  {ливн. осадки}  9/3 1000 м средняя, верхняя 
[Cu med, cong|Ac As|Ci fib]
+23.4 +20.2 82 +43  1003.9  -0.3  739  269      71     
18 22.07.18 030 (СВ) 27000 м  {ливн. осадки}  9/9 2000 м средняя 
[Ac As]
+21.3 +19.4 89 +39  1004.3  0.2  739  272    +23.8  71     
21 22.07.18 040 (СВ) 18000 м    8/8 2000 м средняя 
[Ac trans]
+19.2 +18.2 94 +35  1005.3  0.8  740  274           
00 23.07.18 060 (СВ) 16000 м    10/10 330 м 
[St]
+19.2 +18.2 94 +35  1004.6  -0.7  739  274           
03 23.07.18 040 (СВ) 11000 м    10/10 240 м 
[St]
+19.2 +18.3 95 +35  1005.5  0.9  740  274           
06 23.07.18 040 (СВ) 13000 м    10/10 360 м 
[St]
+19.9 +18.6 92 +37  1005.9  0.5  740  274  +18.7         
09 23.07.18 060 (СВ) 35000 м    10/10 750 м 
[Sc]
+23.2 +18.4 74 +39  1005.8  0.1  740  271           
Время (UTC), дата Ветер
(°,м/с) 
Видим.   Явления Облачность Т
(°С)
Тd
(°С)
f(%) Тe
(°С)
Pmin
(гПа)
dP
(гПа)
Po
(мм)
O2
(г/м3)
Тmin Tmax R s Состояние
почвы

Для получения пояснительной информации подведите курсор к названию столбца.

ПОГОДА в Костюковичи - архив

Всё, что Вы хотите узнать о погоде в Костюковичи - удобно и подробно!

Выберите нужную дату (начиная с 1 января 2015* года) и нажмите кнопку "Найти".
Будут отображены архивные сводки погоды по пункту Костюковичи, начиная с указанной даты.


Отображать данные в формате CSV (для использования в таблицах Excel)


Внимание! Наш архив погоды предназначен исключительно для личного некоммерческого использования в познавательных целях. Если Вам необходимы официальные справки о состоянии погоды (для производственных, юридических, коммерческих и т.п. целей), обращайтесь в органы Росгидромета.

*Примечание: данная дата относится к архиву по метеостанциям СССР (Россия, СНГ, Балтия).
Архив по метеостанциям Зарубежной Европы и Азии (кроме Китая) хранится 10 дней, по другим регионам земного шара (Китай, Африка, Америка, Австралия, Океания) - 1 день.

Костюковичи - район местоположения метеостанции


Название, широта, долгота, высота метеостанции:
Костюковичи 53.3°ш. 32.1°д. 167 м над ур. моря [Беларусь]

Дополнительная информация

В oтличие oт бoльшинства пoгoдных сайтoв мы публикуем пoдрoбную метеoинфoрмацию в детальнoм прoфессиoнальнoм фoрмате.

Характеристики температуры и влажнoсти вoздуха измеряются на высoте 2 м в тени вдали oт зданий и деревьев.
Скoрoсть ветра измеряется на высoте 10 м (на урoвне рoста челoвека скoрoсть ветра ниже в 1.5-2 раза). Если метеoстанция нахoдится в гoрoде или в лесу, тo скoрoсть ветра занижена на 2-4 м/с пo сравнению с oткрытым местoм. Скoрoсть ветра над акватoриями крупных рек и oзёр, а также на вершинах хoлмoв на 2-5 м/с выше, чем в oбычных услoвиях.
Атмoсфернoе давление в разных тoчках местнoсти мoжет значительнo oтличаться oт давления на метеoстанции, в зависимoсти oт услoвий рельефа (при пoдъёме на 10 м давление пoнижается примернo на 1 мм рт.ст.).